CAPE
645 972 1637 1625 1161 1148 965 790 182 245 384 133 236 511 670 717 730 670 492 208 79 7 8 5 5 12 19 66 136 68 21 0 1 198 264 449 81 5 2 0 2 3 0
872 1064 1573 1746 1507 1142 1024 792 203 544 765 555 130 239 676 660 693 655 276 67 14 9 17 10 7 47 77 68 4 1 2 48 188 60 25 29 32 23 129 103 167 71 25
1081 1191 1334 1677 1605 1260 919 642 109 256 615 195 0 27 362 646 656 692 146 4 6 9 16 14 19 7 159 148 0 17 57 59 47 0 0 0 0 4 2 3 7 15 27
1118 1191 1158 1552 1322 1016 825 377 31 495 299 52 0 0 54 304 392 168 14 4 6 8 8 7 27 88 17 18 158 235 107 55 0 0 0 0 0 0 0 4 7 4 13
1163 1172 1199 1498 1234 963 655 230 38 706 305 31 2 5 15 76 14 13 2 7 5 3 2 1 0 0 0 58 139 76 53 23 0 0 0 0 0 0 0 0 1 4 7
918 1110 1224 1252 1138 996 608 250 207 768 280 16 1 16 62 32 13 8 8 5 3 2 1 0 0 0 13 34 36 66 38 12 0 0 0 0 0 0 0 0 0 0 4
890 1097 1053 1260 1136 627 405 311 732 1098 480 57 2 8 12 31 9 6 4 2 4 2 0 0 0 0 12 26 24 21 25 0 0 0 0 0 0 0 0 0 0 0 1
988 1082 949 1005 1165 855 529 625 750 1076 968 333 28 6 10 39 11 10 5 6 24 44 49 41 27 10 0 0 2 2 0 0 0 0 0 0 0 0 0 0 0 0 0
1055 865 788 888 822 767 657 714 882 1249 1327 890 312 28 51 61 55 10 28 42 54 59 41 28 14 0 0 0 0 0 0 0 0 0 0 0 0 0 0 0 0 0 0
685 736 554 529 332 201 211 504 653 812 1105 945 527 145 0 0 5 80 79 100 61 43 29 19 10 0 0 0 0 0 0 0 0 0 0 0 0 0 0 0 0 0 0
1134 910 375 210 83 14 21 377 449 520 587 656 283 58 0 0 0 18 0 42 79 46 24 19 8 0 0 0 0 0 0 0 0 0 0 0 0 0 0 0 0 0 0
804 826 426 151 81 18 51 82 35 140 218 276 98 18 0 0 0 0 0 17 70 67 44 24 8 0 0 0 0 0 0 0 0 0 0 0 0 0 0 0 0 0 0
463 509 263 178 125 60 21 7 0 0 6 54 2 0 0 0 0 0 0 0 0 3 0 2 0 0 0 0 0 0 0 0 0 0 0 0 0 0 0 18 0 0 0
383 385 299 249 169 130 0 0 0 5 0 1 0 0 0 0 0 0 0 0 0 0 0 0 0 0 0 0 0 0 0 0 0 0 0 0 0 0 0 0 79 6 0
158 84 47 232 205 187 47 0 0 0 0 5 0 0 0 0 0 0 0 0 0 0 0 0 0 0 0 0 0 0 0 0 0 0 0 0 0 0 2 0 0 63 264
5 14 12 201 279 293 129 45 1 0 0 0 0 0 0 0 0 0 0 0 0 0 0 0 0 0 0 0 0 0 0 0 0 0 0 0 0 0 21 3 30 39 79
1 3 254 180 346 309 246 156 71 22 0 0 0 0 0 0 0 0 0 0 0 0 0 0 0 0 0 0 0 0 0 0 0 0 0 0 0 0 0 10 73 60 98
271 228 420 502 463 354 323 286 186 155 95 32 0 0 0 0 0 0 0 0 0 0 0 0 0 0 0 0 0 0 0 0 0 0 0 0 1 0 0 4 113 176 253
428 404 441 433 496 493 442 447 280 276 190 105 23 0 0 0 0 0 0 0 0 0 0 0 0 0 0 0 0 1 1 6 1 0 0 0 0 0 0 0 0 34 72
562 500 337 356 471 526 299 129 107 386 334 176 171 59 32 15 1 0 0 0 0 0 0 0 0 0 4 21 28 33 13 5 0 0 0 0 0 0 0 0 0 0 1
374 495 689 559 491 545 510 429 386 427 465 266 142 166 116 76 10 0 0 0 0 8 18 49 70 65 60 21 34 17 3 0 0 0 0 0 0 0 0 0 0 0 8
319 573 597 665 707 660 529 552 443 428 221 146 283 281 217 146 115 59 44 27 48 90 149 137 188 288 270 192 87 39 11 0 0 0 0 0 0 0 0 0 0 0 0
218 364 571 692 745 497 539 188 102 89 135 165 211 315 225 187 212 156 106 150 157 249 331 313 314 330 278 86 35 86 17 0 0 0 0 0 0 0 0 0 0 0 0
0 68 410 483 527 556 423 393 321 280 316 171 137 92 83 45 72 108 94 100 111 131 163 170 82 97 68 78 0 0 0 2 6 0 0 0 0 0 0 0 0 0 0
0 0 25 220 485 564 453 503 419 321 228 65 0 2 0 0 0 0 0 0 0 0 0 0 0 0 0 0 0 0 0 0 0 2 1 0 0 0 0 0 0 0 0
0 0 0 0 53 216 258 330 419 353 229 49 10 4 0 0 0 0 0 0 0 0 0 0 0 0 0 0 0 0 0 0 0 0 0 0 0 0 0 0 0 0 0
CIN
-114 -31 -0 -0 -3 -3 -4 -11 -151 -135 -82 -189 -122 -31 -6 -1 -2 -9 -23 -82 -137 -0 -0 -0 -0 -0 -0 -195 -138 -198 -39 -0 -0 -129 -94 -45 -185 -0 -0 -0 -7 -6 -0
-70 -17 -0 -0 -0 -0 -1 -4 -119 -32 -3 -36 -153 -88 -3 -3 -1 -9 -59 -156 -63 -0 -0 -0 -0 -175 -178 -186 -0 -0 -0 -137 -133 -17 -32 -29 -20 -0 -133 -171 -89 -45 -0
-22 -6 -0 -0 -0 -0 -1 -7 -169 -78 -13 -111 -0 -190 -30 -0 -1 -4 -114 -0 -0 -0 -0 -0 -5 -1 -127 -119 -0 -14 -12 -8 -7 -0 -0 -0 -0 -0 -0 -0 -0 -1 -1
-2 -0 -1 -0 -0 -0 -0 -19 -230 -9 -45 -200 -0 -0 -140 -30 -21 -89 -114 -0 -0 -0 -0 -0 -19 -94 -12 -20 -130 -81 -178 -35 -0 -0 -0 -0 -0 -0 -0 -0 -0 -0 -1
-0 -0 -0 -0 -0 -0 -0 -37 -177 -0 -24 -195 -68 -0 -176 -129 -158 -55 -0 -0 -0 -0 -0 -0 -0 -0 -0 -61 -148 -52 -74 -113 -0 -0 -0 -0 -0 -0 -0 -0 -0 -0 -0
-3 -4 -1 -1 -0 -0 -0 -15 -25 -0 -15 -100 -0 -265 -174 -211 -0 -0 -0 -0 -0 -0 -0 -0 -0 -0 -118 -103 -105 -75 -102 -168 -0 -0 -0 -0 -0 -0 -0 -0 -0 -0 -0
-16 -11 -2 -0 -0 -0 -0 -6 -0 -0 -1 -118 -0 -0 -0 -211 -0 -0 -0 -0 -0 -0 -0 -0 -0 -0 -161 -149 -154 -159 -145 -0 -0 -0 -0 -0 -0 -0 -0 -0 -0 -0 -0
-12 -3 -1 -1 -0 -0 -0 -0 -0 -0 -0 -13 -61 -0 -0 -214 -63 -0 -0 -0 -138 -317 -301 -125 -139 -166 -0 -0 -98 -84 -0 -0 -0 -0 -0 -0 -0 -0 -0 -0 -0 -0 -0
-4 -10 -6 -2 -0 -1 -0 -1 -0 -0 -0 -0 -21 -112 -155 -180 -218 -0 -157 -276 -278 -277 -269 -163 -193 -0 -0 -0 -0 -0 -0 -0 -0 -0 -0 -0 -0 -0 -0 -0 -0 -0 -0
-30 -20 -8 -6 -15 -30 -27 -5 -3 -5 -2 -0 -15 -58 -0 -0 -1 -180 -201 -174 -236 -276 -145 -167 -194 -0 -0 -0 -0 -0 -0 -0 -0 -0 -0 -0 -0 -0 -0 -0 -0 -0 -0
-0 -9 -46 -78 -112 -121 -87 -13 -15 -24 -22 -20 -42 -118 -0 -0 -0 -110 -0 -263 -191 -261 -155 -175 -202 -0 -0 -0 -0 -0 -0 -0 -0 -0 -0 -0 -0 -0 -0 -0 -0 -0 -0
-1 -0 -53 -116 -149 -197 -122 -121 -145 -103 -81 -71 -128 -201 -0 -0 -0 -0 -0 -184 -188 -212 -153 -174 -191 -0 -0 -0 -0 -0 -0 -0 -0 -0 -0 -0 -0 -0 -0 -0 -0 -0 -0
-68 -23 -58 -90 -177 -218 -227 -159 -0 -0 -28 -183 -34 -0 -0 -0 -0 -0 -0 -0 -0 -31 -0 -10 -0 -0 -0 -0 -0 -0 -0 -0 -0 -0 -0 -0 -0 -0 -0 -20 -0 -0 -0
-217 -128 -90 -34 -99 -202 -0 -0 -0 -215 -0 -36 -0 -0 -0 -0 -0 -0 -0 -0 -0 -0 -0 -0 -0 -0 -0 -0 -0 -0 -0 -0 -0 -0 -0 -0 -0 -0 -0 -0 -23 -1 -0
-325 -393 -333 -152 -80 -124 -333 -122 -0 -0 -0 -373 -0 -0 -0 -0 -0 -0 -0 -0 -0 -0 -0 -0 -0 -0 -0 -0 -0 -0 -0 -0 -0 -0 -0 -0 -0 -0 -6 -0 -1 -9 -0
-424 -364 -428 -183 -56 -92 -179 -319 -114 -0 -0 -0 -0 -0 -0 -0 -0 -0 -0 -0 -0 -0 -0 -0 -0 -0 -0 -0 -0 -0 -0 -0 -0 -0 -0 -0 -0 -0 -67 -40 -25 -17 -21
-259 -255 -157 -123 -134 -134 -103 -156 -235 -336 -0 -0 -0 -0 -0 -0 -0 -0 -0 -0 -0 -0 -0 -0 -0 -0 -0 -0 -0 -0 -0 -0 -0 -0 -0 -0 -0 -0 -10 -61 -26 -18 -17
-175 -175 -101 -65 -41 -81 -162 -90 -140 -124 -182 -285 -24 -0 -0 -0 -0 -0 -0 -0 -0 -0 -0 -0 -0 -0 -0 -0 -0 -0 -0 -0 -16 -13 -0 -0 -118 -0 -0 -144 -80 -29 -17
-131 -99 -93 -143 -73 -108 -95 -87 -171 -156 -142 -181 -315 -0 -0 -0 -0 -0 -0 -0 -0 -0 -0 -0 -0 -0 -0 -0 -25 -32 -19 -59 -50 -0 -0 -0 -0 -0 -0 -0 -0 -95 -50
-89 -57 -89 -78 -57 -75 -158 -173 -306 -172 -112 -132 -151 -257 -289 -300 -64 -0 -0 -0 -0 -0 -0 -0 -0 -0 -73 -105 -83 -72 -38 -64 -0 -0 -0 -0 -0 -0 -0 -0 -0 -0 -24
-119 -99 -68 -48 -101 -93 -78 -101 -130 -96 -61 -105 -183 -169 -192 -184 -258 -0 -0 -0 -0 -271 -231 -180 -142 -118 -115 -131 -83 -77 -62 -18 -0 -0 -0 -0 -0 -0 -0 -0 -0 -0 -191
-185 -131 -116 -91 -75 -82 -87 -57 -71 -88 -162 -178 -130 -126 -126 -141 -124 -152 -172 -203 -190 -155 -110 -89 -62 -21 -28 -34 -23 -30 -13 -0 -0 -0 -0 -0 -0 -0 -0 -0 -0 -0 -0
-215 -198 -159 -142 -126 -151 -102 -186 -215 -201 -158 -157 -131 -105 -131 -112 -118 -101 -138 -110 -116 -92 -62 -57 -51 -28 -14 -93 -89 -13 -13 -0 -0 -0 -0 -0 -0 -0 -0 -0 -0 -0 -0
-0 -238 -191 -173 -166 -162 -193 -156 -143 -132 -83 -150 -157 -194 -176 -232 -211 -178 -172 -168 -139 -142 -125 -127 -157 -132 -110 -86 -0 -0 -0 -3 -5 -0 -0 -0 -0 -0 -0 -0 -0 -0 -0
-0 -0 -323 -260 -182 -171 -207 -164 -146 -155 -193 -268 -5 -310 -0 -0 -0 -0 -0 -0 -0 -0 -0 -0 -0 -0 -0 -0 -0 -0 -0 -0 -0 -1 -0 -0 -0 -0 -0 -0 -0 -0 -0
-0 -0 -0 -0 -199 -278 -236 -197 -151 -155 -179 -258 -318 -354 -0 -0 -0 -0 -0 -0 -0 -0 -0 -0 -0 -0 -0 -0 -0 -0 -0 -0 -0 -0 -0 -0 -0 -0 -0 -0 -0 -0 -0
Wind_Speed
11 11 18 19 18 18 17 16 16 14 16 15 14 15 17 19 20 20 19 19 17 17 17 18 18 17 16 16 16 18 17 15 14 13 14 17 18 15 14 11 8 5 12
13 13 18 19 18 17 17 16 15 12 14 15 14 15 16 19 19 20 19 18 17 17 16 17 17 16 15 14 12 12 13 13 13 14 12 12 12 13 13 14 13 13 13
15 13 14 17 16 16 16 16 15 14 16 16 15 14 15 17 18 19 19 18 17 16 16 16 16 15 13 11 10 9 10 11 10 12 12 6 6 12 12 12 11 13 12
13 11 10 16 16 17 16 15 15 14 17 16 16 15 15 16 17 17 18 17 16 15 15 15 14 12 12 10 12 14 13 11 10 11 5 5 5 11 11 10 10 10 12
11 10 10 16 17 16 15 14 15 15 17 16 15 15 15 15 16 16 16 16 15 14 14 14 13 11 11 12 12 14 13 11 10 8 6 5 4 9 11 11 9 9 9
7 9 13 16 16 14 13 12 14 17 17 16 15 14 14 16 16 16 16 14 13 12 13 13 12 10 10 11 12 11 11 9 8 5 5 6 4 10 11 11 10 10 9
8 10 9 15 16 15 13 11 12 17 17 16 15 15 16 17 17 16 14 13 12 11 11 11 10 9 9 10 10 10 10 9 5 4 4 3 4 10 10 10 10 10 9
9 8 9 13 14 13 12 10 10 16 16 16 14 15 15 15 17 15 14 12 11 11 10 9 8 7 6 7 9 9 7 6 4 3 3 2 5 8 9 9 9 9 9
8 7 6 8 8 11 10 8 7 12 15 15 13 13 13 12 13 14 13 11 10 9 8 7 6 5 4 5 6 8 7 6 4 2 2 0 2 6 7 7 8 8 8
7 9 8 7 6 6 6 8 7 7 10 14 13 10 9 10 10 11 9 8 8 7 6 5 4 2 2 3 4 5 6 5 2 3 2 2 3 4 4 5 6 6 6
7 8 8 7 6 5 5 4 6 6 6 11 9 9 7 4 5 6 6 8 7 6 5 4 2 1 1 4 4 4 4 1 1 3 2 6 6 3 3 3 3 4 3
8 5 8 8 7 5 3 4 3 3 3 4 5 6 4 4 4 5 5 7 7 7 6 5 3 2 2 2 3 3 0 1 1 2 3 7 7 4 4 3 2 2 1
14 5 4 5 8 6 4 3 1 1 2 3 5 5 5 3 3 2 1 2 2 5 2 2 1 1 2 2 3 2 3 2 2 2 4 8 9 7 5 6 5 4 4
20 14 8 2 4 7 5 4 3 3 3 3 4 5 4 3 4 3 3 3 3 2 3 3 2 3 3 4 4 4 4 3 2 2 4 9 10 10 8 7 8 8 8
14 16 13 6 5 5 9 4 4 4 3 4 4 5 4 4 4 3 3 3 3 3 3 3 3 3 4 4 5 5 5 5 5 3 3 7 10 11 11 10 10 10 11
9 12 13 11 6 5 4 5 6 5 5 4 4 5 6 5 4 4 4 4 4 4 4 4 4 3 4 3 5 5 6 5 5 5 4 4 10 11 11 12 12 11 11
5 9 13 15 17 10 6 4 3 6 5 5 6 6 7 6 6 6 4 4 5 4 5 3 3 2 3 2 5 4 4 5 5 6 4 4 5 9 11 14 14 12 13
10 14 14 9 11 13 13 6 4 4 6 7 6 5 9 8 7 6 5 5 4 4 4 3 3 3 4 4 3 4 4 4 5 5 4 4 3 4 6 14 11 12 12
13 12 15 18 15 13 11 9 6 6 7 6 6 6 7 9 10 8 6 4 5 4 4 4 4 4 3 3 4 3 3 3 4 3 6 6 5 4 4 5 11 10 7
13 13 13 12 12 10 6 5 4 8 8 6 6 7 9 8 9 7 5 5 5 4 4 3 5 3 3 3 3 3 4 3 3 4 6 4 3 5 5 5 4 4 6
9 12 15 12 9 8 5 7 7 10 8 5 5 8 11 9 9 9 6 5 5 5 5 5 3 4 3 2 2 3 3 4 5 5 3 4 5 5 5 4 3 3 4
9 11 12 14 15 12 9 4 2 4 4 3 2 6 8 9 8 7 7 6 6 4 5 4 4 2 2 2 2 2 4 4 3 2 2 3 4 2 1 2 2 3 3
7 9 11 12 12 10 9 2 1 1 1 2 2 3 4 6 6 7 6 4 4 3 3 3 3 3 2 1 1 2 2 3 2 3 1 3 3 2 2 3 4 4 4
9 5 6 4 7 8 8 6 6 4 4 2 3 1 3 5 4 4 4 4 3 3 4 4 4 3 3 3 1 1 2 1 3 4 2 2 2 3 2 3 4 4 3
7 7 6 5 5 6 8 9 7 5 4 4 2 5 4 3 5 6 2 4 3 1 3 2 2 3 2 2 3 1 1 1 3 3 5 4 3 2 2 2 4 4 3
3 5 6 7 6 5 4 6 9 11 6 4 3 4 7 3 4 2 3 3 4 2 2 0 1 2 1 1 1 2 2 2 1 2 2 4 4 1 2 3 3 3 2
Wind_Direction
157 154 154 145 147 141 138 133 127 132 122 120 109 105 117 127 122 115 107 105 104 103 104 102 101 100 95 90 81 75 77 79 77 67 57 67 74 75 75 75 73 85 69
138 147 154 149 148 146 140 134 135 138 133 120 117 110 112 121 118 117 112 107 104 103 102 102 104 104 99 93 86 82 84 87 80 62 46 42 67 72 65 60 47 49 76
139 146 151 148 147 146 139 137 140 139 134 124 124 122 119 119 122 118 113 107 108 107 105 105 107 107 95 84 83 90 99 99 74 67 62 45 49 55 53 53 55 46 58
135 139 144 146 144 141 139 141 142 141 131 128 127 127 127 125 122 115 112 112 113 112 110 108 108 104 93 81 88 96 103 97 83 74 61 49 44 64 60 58 59 58 43
130 134 141 141 142 140 143 144 146 144 132 127 129 133 133 130 128 119 118 120 119 119 118 119 116 107 92 86 95 105 104 96 86 77 73 68 50 64 66 67 56 54 55
113 124 139 140 137 136 141 146 153 144 136 132 134 137 138 135 135 127 123 125 125 125 125 126 122 114 102 95 95 109 107 98 91 81 69 64 66 71 68 66 63 61 55
116 120 133 137 133 134 141 147 161 143 141 136 138 140 143 141 135 134 128 130 128 129 130 128 125 120 105 97 93 95 119 110 102 92 84 71 68 76 70 66 64 63 58
117 120 134 137 133 133 141 149 165 151 145 139 142 143 144 144 142 140 141 141 139 136 134 135 126 113 101 98 101 94 102 124 103 102 92 75 85 80 77 72 67 63 59
115 103 114 122 123 126 136 149 164 154 150 143 143 145 143 142 145 149 150 151 149 145 140 137 129 116 95 78 78 91 89 119 126 145 142 118 106 85 82 76 70 65 60
135 115 107 108 109 116 132 154 156 149 147 145 145 143 142 141 148 151 151 157 155 154 151 149 145 127 66 39 30 53 78 88 129 196 207 235 189 115 102 90 78 69 61
126 136 124 120 117 120 129 146 156 154 137 142 136 139 135 136 138 143 153 156 154 163 172 173 182 212 337 345 350 0 59 140 246 213 211 245 219 168 137 113 95 81 71
142 138 139 137 129 128 131 127 152 161 152 136 142 146 142 153 154 162 170 173 171 175 184 202 215 248 327 314 317 341 25 313 295 233 219 241 239 225 191 182 167 145 115
137 135 143 148 142 142 147 151 156 110 136 146 152 157 157 154 168 153 179 193 191 199 206 222 264 248 258 264 291 293 283 267 240 248 242 237 237 244 230 213 214 213 216
151 138 124 202 215 161 149 167 173 170 173 175 180 173 160 170 183 183 188 204 207 210 218 221 227 246 260 264 261 280 274 274 250 245 251 247 237 244 244 236 224 225 229
149 142 140 151 223 218 164 162 174 197 201 195 185 195 180 187 201 184 205 203 207 196 215 222 221 234 251 265 266 256 265 262 256 246 247 250 240 239 243 244 240 235 234
148 149 146 156 220 201 252 178 187 186 206 205 200 209 203 193 196 200 198 214 218 206 203 220 224 241 255 261 270 252 255 257 262 261 254 262 249 243 238 242 247 245 246
181 145 156 171 195 179 181 212 229 205 190 207 211 199 205 201 199 193 201 215 220 204 211 221 249 245 249 245 253 258 260 260 259 266 265 249 250 237 239 241 243 247 254
166 168 170 192 204 184 168 184 201 261 211 210 216 193 203 203 195 193 200 215 206 193 187 189 202 229 239 233 254 260 256 260 261 250 264 271 260 249 235 246 249 237 254
180 177 189 186 185 197 194 198 198 205 233 215 202 206 203 207 192 191 200 202 189 188 199 195 205 193 221 241 244 260 262 263 281 298 287 272 264 253 240 238 243 234 249
184 181 187 200 197 204 176 205 174 217 223 216 205 200 203 206 199 188 187 201 188 187 208 204 211 210 215 237 258 262 257 257 271 273 272 295 282 267 248 231 226 198 186
188 176 195 192 193 185 182 195 208 214 224 205 191 202 201 210 202 198 193 193 190 195 211 206 197 220 231 204 261 297 280 271 276 270 313 292 284 268 248 213 161 160 141
192 196 187 195 192 199 205 220 247 188 203 228 245 205 195 199 198 196 197 200 190 195 210 209 197 203 223 212 213 278 299 322 330 320 331 346 338 1 312 128 150 133 97
189 202 202 203 201 208 204 169 128 151 284 174 221 220 232 211 197 203 190 184 206 198 196 186 170 187 251 73 139 207 311 247 311 306 316 335 21 43 68 71 69 61 79
218 189 209 197 195 194 172 180 175 204 200 248 234 267 280 281 224 184 169 162 197 206 207 200 189 169 156 227 33 209 227 240 280 320 320 301 9 32 121 101 97 82 80
213 185 180 205 218 192 186 187 186 187 180 157 202 123 95 11 354 338 348 108 153 0 340 349 92 98 119 167 189 194 197 232 228 223 276 312 2 25 16 104 121 120 109
163 175 174 196 219 199 223 219 199 208 187 178 175 187 154 162 151 137 67 78 97 124 264 24 72 113 147 238 221 219 198 206 232 218 252 273 257 319 60 73 93 86 87